User: anonymous   Login
Location: Unspecified
(0.0000°N, 0.0000°E)
Time: 00:37:43
(UTC+00:00)
Language:

UKube-1 - Orbit

View from above orbital plane
View from above orbital plane
View from above satellite
View from above satellite

Ground track
Ground track

The orbit data is extracted from the following two-line orbital elements,

1 40074U 14037F   17206.40120248 +.00000305 +00000-0 +44202-4 0  9991
2 40074 098.3507 323.0434 0003472 298.0932 061.9926 14.83524548164847
Epoch (UTC): 25 July 2017 09:37:43
Eccentricity: 0.0003472
inclination: 98.3507°
perigee height: 616 km
apogee height: 620 km
right ascension of ascending node: 323.0434°
argument of perigee: 298.0932°
revolutions per day: 14.83524548
mean anomaly at epoch: 61.9926°
orbit number at epoch: 16484

The dashed part of the orbit path shows where the satellite is in the earth's shadow,  

DLR